Home   Weather   Tübingen   Past weeks

Flag for Germany Past Weather in Tübingen, Baden-Württemberg, Germany — Yesterday and Last 2 Weeks

Now
48 °F

Partly sunny.


Feels Like: 42 °F
Forecast: 44 / 58 °F
Wind: 15 mph from West

Location: Stuttgart-Echterdingen

Current Time: Feb 22, 2017 at 5:17:16 pm

Latest Report: Feb 22, 2017 at 4:50 pm


Visibility: N/A

Pressure: 29.92 "Hg

Humidity: 76%

Dew Point: 41 °F

Location of TübingenLocation

Past Weather in Tübingen — Graph

°F

Tübingen Temperature Yesterday

Maximum temperature yesterday: 50 °F (at 12:50 pm)
Minimum temperature yesterday: 46 °F (at 12:20 am)
Average temperature yesterday: 48 °F

High & Low Weather Summary for the Past Weeks

 TemperatureHumidityPressure
High59 °F (Feb 16, 2:50 pm)100% (Feb 11, 3:20 am)30.54 "Hg (Feb 11, 3:20 am)
Low23 °F (Feb 11, 5:20 am)47% (Feb 15, 3:50 pm)29.92 "Hg (Feb 22, 2:20 pm)
Average38 °F82%30.22 "Hg
* Reported Feb 7 4:20 pm — Feb 22 4:20 pm, Tübingen, Weather by CustomWeather, © 2017

Note: Actual official high and low records may vary slightly from our data, if they occured in-between our weather recording intervals... More about our weather records

Advertising

Tübingen Weather History for the Previous 24 Hours

Scroll right to see more
 ConditionsComfort  
Time TempWeatherWind HumidityBarometerVisibility
4:20 pm
Wed, Feb 22
48 °FPartly sunny.15 mph76%29.92 "HgN/A
3:50 pm48 °FPartly sunny.15 mph76%29.92 "HgN/A
3:20 pm48 °FPartly sunny.16 mph76%29.92 "HgN/A
2:50 pm50 °FPartly sunny.16 mph71%29.92 "HgN/A
2:20 pm50 °FPartly sunny.16 mph71%29.92 "HgN/A
1:50 pm50 °FPartly sunny.17 mph71%29.95 "HgN/A
1:20 pm50 °FPartly sunny.20 mph71%29.95 "HgN/A
12:50 pm50 °FPartly sunny.18 mph71%29.95 "HgN/A
12:20 pm50 °FPartly sunny.17 mph71%29.95 "HgN/A
11:50 am50 °FPartly sunny.17 mph71%29.95 "HgN/A
11:20 am50 °FPartly sunny.15 mph71%29.95 "HgN/A
10:50 am50 °FPartly sunny.13 mph76%29.95 "HgN/A
10:20 am50 °FPartly sunny.14 mph76%29.95 "HgN/A
9:50 am48 °FLight rain. Partly sunny.14 mph82%29.95 "HgN/A
9:20 am48 °FPartly sunny.12 mph82%29.95 "HgN/A
8:50 am48 °FPartly sunny.12 mph87%29.95 "HgN/A
8:20 am48 °FPartly sunny.12 mph87%29.95 "HgN/A
7:50 am48 °FPartly sunny.8 mph87%29.95 "HgN/A
7:20 am48 °FPartly sunny.9 mph87%29.95 "HgN/A
6:50 am48 °FPassing clouds.8 mph87%29.95 "HgN/A
6:20 am48 °FPartly cloudy.7 mph87%29.95 "HgN/A
5:50 am48 °FPartly cloudy.9 mph87%29.95 "HgN/A
5:20 am48 °FPartly cloudy.9 mph94%29.95 "HgN/A
4:50 am48 °FPartly cloudy.9 mph94%29.95 "HgN/A
4:20 am48 °FPartly cloudy.9 mph94%29.98 "HgN/A
3:50 am48 °FPassing clouds.7 mph94%29.98 "HgN/A
3:20 am48 °FLight rain. Passing clouds.9 mph94%29.98 "HgN/A
2:50 am48 °FPassing clouds.9 mph94%29.98 "HgN/A
2:20 am48 °FPassing clouds.7 mph94%30.01 "HgN/A
1:50 am48 °FPartly cloudy.7 mph94%30.01 "HgN/A
1:20 am48 °FPassing clouds.6 mph94%30.01 "HgN/A
12:50 am48 °FPassing clouds.6 mph94%30.04 "HgN/A
12:20 am48 °FPartly cloudy.6 mph94%30.04 "HgN/A
11:50 pm
Tue, Feb 21
48 °FPartly cloudy.6 mph94%30.04 "HgN/A
11:20 pm48 °FLight rain. Partly cloudy.5 mph94%30.04 "HgN/A
10:50 pm48 °FLight rain. Partly cloudy.7 mph94%30.04 "HgN/A
10:20 pm48 °FLight rain. Passing clouds.5 mph94%30.04 "HgN/A
9:50 pm48 °FLight rain. Passing clouds.6 mph94%30.04 "HgN/A
9:20 pm48 °FLight rain. Passing clouds.5 mph94%30.04 "HgN/A
8:50 pm48 °FLight rain. Partly cloudy.5 mph100%30.04 "HgN/A
8:20 pm48 °FPassing clouds.6 mph100%30.04 "HgN/A
7:50 pm48 °FLight rain. Passing clouds.5 mph100%30.07 "HgN/A
7:20 pm48 °FLight rain. Partly cloudy.5 mph100%30.07 "HgN/A
6:50 pm48 °FPartly cloudy.6 mph100%30.07 "Hg4 mi
6:20 pm48 °FPassing clouds.5 mph100%30.04 "Hg3 mi
5:50 pm50 °FDrizzle. Partly sunny.5 mph94%30.04 "Hg2 mi
5:20 pm50 °FDrizzle. Broken clouds.5 mph94%30.04 "Hg5 mi
Weather by CustomWeather, © 2017

See weather overviewHow to use our weather pages